sat.trackr.live / text

‹ back to catalog

STARLINK-11566 [DTC]

NORAD 62914 · 2025-027H

PAYLOAD ACTIVE UNKNOWN

§ Identity

Operator
Country
US
Launch date
2025-02-08
Launch site
AFETR
Launch vehicle
Mass (kg)
RCS (m²)

Purposes: comms

External: N2YO · Heavens-Above · Gunter

§ Orbital elements

Epoch: 2026-09-21T02:36:54.059328Z

Period
91.68 min
Inclination
42.9990°
Eccentricity
0.0001915
Mean motion
15.70760677 rev/d
Perigee alt
355.4 km
Apogee alt
358.0 km
Semi-major
6,734.9 km
B*
1.6729e-3
RAAN
249.9922°
Arg perigee
186.1607°
Mean anomaly
173.9237°
Rev number
9,392

§ Raw data

STARLINK-11566 [DTC]1 62914U 25027H   26264.10895902  .00219238  00000+0  16729-2 0  99932 62914  42.9990 249.9922 0001915 186.1607 173.9237 15.70760677 93920

JSON: /api/v1/satellites/62914 · /tle

For live sub-satellite position, see the globe view (requires WebGL).

§ Visibility from observer

Set your observer location to see the next 7 days of passes ≥ 10°. The values pass through the URL so the page stays shareable.

No JS? Fill the form by hand. The geolocation button needs JavaScript.